Vertical_Velocity
1 -0 -2 -4 -1 -0 -4 -8 0 -3 -7 2 -2 -2 -6 -4 -2 2 -0 -7 -6 -1 7 5 0 8 2
-3 -1 3 4 -2 1 -1 -1 -1 -1 -5 3 4 2 -6 -3 -1 2 1 2 3 -5 1 8 8 1 91
-1 0 -4 -4 -0 0 6 -0 1 -3 1 -6 5 -4 -5 -0 1 1 -1 12 1 -1 -4 8 12 -8 -4
0 -2 -4 -2 -0 1 -3 2 6 -2 7 -1 3 -3 -3 -0 -1 1 -1 -1 11 9 4 5 4 4 7
-5 0 -4 -4 2 -1 -8 0 4 -7 -0 -2 3 -1 -3 0 -0 -0 2 -2 0 0 4 8 14 14 3
2 -3 -4 6 3 -9 -4 3 -3 3 -6 0 1 -2 -1 1 0 -1 -0 1 -2 -0 0 -1 0 -9 6
-3 0 0 6 -2 4 0 2 -3 -2 1 -0 -1 -3 -1 1 -0 0 -2 1 1 -2 -0 -2 3 2 6
3 6 -3 -8 0 10 4 -2 -4 -3 -1 -1 -2 -3 1 -0 1 1 0 -2 -0 -1 -1 -2 -1 -1 2
-4 -5 2 -1 -1 5 5 -3 -1 -1 -0 1 -2 -3 1 0 0 1 1 -1 2 -2 1 0 2 2 2
-1 4 1 5 -3 1 -6 -3 1 -1 -3 0 1 1 -1 1 0 -0 2 1 1 0 3 0 2 2 1
3 -6 1 0 3 -1 -3 -1 0 -1 1 2 1 1 -0 1 1 -1 -0 -1 -2 1 3 2 2 2 1
-3 -4 -1 2 2 1 -4 -1 -1 -1 -1 3 0 0 1 1 -0 -0 -1 0 2 2 2 1 -0 -1 0
-4 -0 0 2 -1 -2 -1 -0 -1 1 1 1 1 -1 2 0 -0 0 -2 -1 0 1 0 1 2 1 1
1 -0 -0 -2 -1 1 1 1 -0 1 1 1 -1 -1 0 0 0 0 -0 -2 -0 1 2 1 -0 -0 -1
-2 -2 -2 0 1 1 0 0 0 1 -0 -0 -0 -1 -1 -0 -2 -0 0 -1 1 -1 0 2 0 -0 -0
-1 -2 -0 3 0 0 -0 0 0 1 1 1 0 -1 -1 -1 -1 1 -1 0 2 0 -1 -2 -1 0 -0
-1 1 2 1 -0 2 0 0 1 1 1 0 2 -1 -2 -4 -0 1 -0 2 0 -1 -0 -2 -1 4 -1
Height
1528 1527 1525 1526 1524 1524 1525 1526 1524 1524 1523 1521 1518 1518 1517 1513 1510 1510 1505 1500 1499 1499 1500 1503 1508 1513 1517
1522 1523 1522 1522 1521 1520 1520 1520 1519 1520 1519 1516 1516 1511 1514 1510 1508 1508 1506 1501 1498 1499 1500 1502 1507 1513 1509
1517 1519 1517 1517 1518 1520 1520 1518 1515 1515 1515 1513 1513 1510 1511 1508 1507 1507 1506 1503 1500 1499 1501 1503 1504 1508 1512
1512 1513 1515 1515 1514 1517 1516 1515 1514 1513 1512 1512 1509 1509 1508 1506 1506 1506 1507 1507 1504 1503 1505 1506 1507 1510 1515
1506 1507 1506 1507 1510 1513 1511 1514 1511 1509 1508 1512 1508 1506 1506 1505 1505 1505 1506 1507 1508 1508 1509 1510 1511 1513 1517
1504 1501 1505 1505 1504 1505 1508 1508 1510 1507 1507 1507 1505 1504 1504 1504 1503 1504 1505 1506 1507 1509 1511 1512 1513 1517 1519
1500 1501 1500 1503 1502 1499 1500 1500 1503 1506 1507 1504 1503 1502 1502 1502 1502 1502 1503 1504 1506 1508 1511 1510 1515 1516 1519
1499 1498 1494 1499 1501 1502 1498 1500 1504 1502 1504 1502 1501 1501 1500 1500 1500 1500 1500 1501 1504 1506 1508 1510 1512 1514 1516
1493 1499 1495 1492 1497 1501 1495 1497 1501 1501 1501 1499 1498 1498 1498 1497 1498 1499 1499 1500 1501 1503 1505 1507 1509 1511 1513
1492 1493 1489 1491 1491 1495 1493 1496 1498 1499 1498 1497 1495 1496 1496 1494 1495 1496 1498 1499 1501 1502 1504 1505 1506 1508 1510
1487 1490 1488 1489 1489 1489 1490 1494 1495 1495 1495 1494 1493 1493 1494 1493 1493 1494 1496 1498 1499 1500 1502 1504 1505 1506 1508
1484 1486 1487 1487 1487 1487 1488 1490 1491 1492 1492 1493 1492 1492 1492 1492 1493 1493 1494 1496 1497 1498 1500 1501 1503 1504 1505
1482 1484 1484 1484 1485 1486 1486 1487 1488 1489 1489 1490 1490 1490 1491 1491 1491 1493 1494 1495 1495 1496 1497 1498 1500 1501 1503
1480 1480 1481 1482 1484 1484 1484 1485 1485 1486 1487 1487 1488 1489 1489 1489 1490 1491 1492 1493 1493 1493 1494 1496 1497 1499 1501
1476 1478 1480 1481 1481 1481 1481 1482 1483 1484 1484 1485 1485 1486 1487 1487 1487 1489 1490 1490 1491 1491 1492 1493 1494 1496 1497
1474 1476 1478 1478 1477 1478 1478 1479 1480 1480 1481 1482 1483 1483 1484 1485 1485 1485 1485 1486 1487 1487 1488 1489 1491 1493 1494
1472 1473 1474 1474 1474 1474 1474 1475 1476 1477 1478 1479 1479 1480 1481 1481 1482 1481 1481 1482 1482 1483 1484 1485 1487 1489 1489